Location: Veytaux
(46.4185°N, 6.9320°E)
Time: 08:26:20
(UTC+00:00)

Resurs 1-4 Rocket - Pass Details

Date: 27 May 2022
Orbit: 800 x 813 km, 98.7° (Epoch: 01 July)

Event Time Altitude Azimuth Distance (km) Brightness Sun altitude
Rises 00:56:50 0° 17° (NNE) 3,322 6.9 -19.5°
Reaches altitude 10° 00:59:12 10° 21° (NNE) 2,388 5.8 -19.3°
Maximum altitude 01:04:26 62° 102° (ESE) 902 2.3 -19.0°
Enters shadow 01:07:02 30° 173° (S) 1,423 2.9 -18.8°
